FW6122 Weather Reports


Display with metric or nautical units.
time (UTC)temp
F
wind
direction
speed
MPH
gust
MPH
rain 1hr
in
rain 24hr
in
rain mn
in
humidity
%
barometer
mb
20260904120055 57 215 4.0 9.0 0.00 0.00 0.00 39 1008.5
20260904114540 57 228 4.0 9.0 0.00 0.00 0.00 38 1008.6
20260904113040 57 179 4.0 9.0 0.00 0.00 0.00 39 1008.7
20260904111538 57 234 4.0 9.0 0.00 0.00 0.00 39 1008.6
20260904110038 57 202 3.0 9.0 0.00 0.00 0.00 39 1008.7
20260904104559 57 219 4.0 9.0 0.00 0.00 0.00 37 1008.8
20260904103035 57 252 5.0 10.0 0.00 0.00 0.00 36 1008.9
20260904101538 57 225 3.0 10.0 0.00 0.00 0.00 32 1008.9
20260904100028 57 218 4.0 17.0 0.00 0.00 0.00 28 1009.0
20260904094530 57 219 3.0 10.0 0.00 0.00 0.00 24 1009.0
20260904093022 57 200 3.0 10.0 0.00 0.00 0.00 19 1009.3
20260904091521 57 205 3.0 5.0 0.00 0.00 0.00 14 1009.5
20260904090020 58 172 3.0 6.0 0.00 0.00 0.00 15 1009.8
20260904084516 58 200 2.0 6.0 0.00 0.00 0.00 16 1010.0
20260904083013 58 216 2.0 6.0 0.00 0.00 0.00 15 1010.4
20260904081512 58 202 2.0 4.0 0.00 0.00 0.00 14 1010.4
20260904080012 58 198 2.0 5.0 0.00 0.00 0.00 15 1010.4
20260904074509 58 187 2.0 4.0 0.00 0.00 0.00 18 1010.4
20260904073008 58 205 1.0 6.0 0.00 0.00 0.00 20 1010.5
20260904071506 59 199 2.0 4.0 0.00 0.00 0.00 24 1010.5
20260904070006 59 215 1.0 4.0 0.00 0.00 0.00 20 1010.5
20260904064607 60 203 2.0 4.0 0.00 0.00 0.00 19 1010.5
20260904063054 60 222 1.0 3.0 0.00 0.00 0.00 17 1010.5
20260904061550 60 219 1.0 4.0 0.00 0.00 0.00 18 1010.5
20260904060112 60 266 1.0 3.0 0.00 0.00 0.00 17 1010.5
20260904054541 61 238 2.0 6.0 0.00 0.00 0.00 17 1010.5
20260904053119 60 159 1.0 5.0 0.00 0.00 0.00 16 1010.6
20260904051543 60 196 1.0 3.0 0.00 0.00 0.00 17 1010.7
20260904050034 60 178 1.0 4.0 0.00 0.00 0.00 20 1010.7
20260904044523 60 192 1.0 3.0 0.00 0.00 0.00 24 1010.8
20260904043019 59 220 1.0 3.0 0.00 0.00 0.00 27 1010.7
20260904041516 59 188 1.0 4.0 0.00 0.00 0.00 32 1010.6
20260904040013 59 187 1.0 3.0 0.00 0.00 0.00 35 1010.5
20260904034510 59 240 1.0 5.0 0.00 0.00 0.00 36 1010.5
20260904033003 58 160 1.0 5.0 0.00 0.00 0.00 38 1010.5
20260904031601 58 181 1.0 5.0 0.00 0.00 0.00 39 1010.4
20260904030059 59 171 0.0 2.0 0.00 0.00 0.00 39 1010.0
20260904024611 59 168 1.0 5.0 0.00 0.00 0.00 39 1009.8
20260904023100 60 201 0.0 2.0 0.00 0.00 0.00 42 1009.6
20260904021545 60 201 0.0 2.0 0.00 0.00 0.00 44 1009.4
20260904020042 61 201 0.0 3.0 0.00 0.00 0.00 50 1009.4
20260904014537 62 231 2.0 4.0 0.00 0.00 0.00 48 1009.6
20260904013034 63 231 1.0 4.0 0.00 0.00 0.00 50 1009.7
20260904011532 64 211 1.0 4.0 0.00 0.00 0.00 47 1009.8
20260904010024 65 211 2.0 5.0 0.00 0.00 0.00 45 1009.9
20260904004519 66 244 2.0 5.0 0.00 0.00 0.00 45 1009.8
20260904003015 67 235 3.0 5.0 0.00 0.00 0.00 44 1009.7
20260904001511 69 209 2.0 5.0 0.00 0.00 0.00 41 1009.7
20260903234501 70 212 2.0 6.0 0.00 0.00 0.00 37 1009.6
20260903233119 71 227 3.0 6.0 0.00 0.00 0.00 38 1009.9
20260903231553 72 173 1.0 6.0 0.00 0.00 0.00 36 1010.0
20260903230106 72 175 3.0 7.0 0.00 0.00 0.00 37 1010.3
20260903224552 73 240 2.0 5.0 0.00 0.00 0.00 38 1010.5
20260903223104 73 241 3.0 6.0 0.00 0.00 0.00 33 1010.6
20260903221535 74 210 2.0 7.0 0.00 0.00 0.00 28 1011.0
20260903220031 73 167 1.0 8.0 0.00 0.00 0.00 27 1011.0
20260903214526 74 191 2.0 6.0 0.00 0.00 0.00 25 1011.3
20260903213038 75 221 2.0 8.0 0.00 0.00 0.00 23 1011.4
20260903211517 74 176 2.0 8.0 0.00 0.00 0.00 23 1011.4
20260903210014 74 219 1.0 9.0 0.00 0.00 0.00 22 1011.6
20260903204508 74 240 2.0 6.0 0.00 0.00 0.00 21 1011.7
20260903203005 75 242 3.0 6.0 0.00 0.00 0.00 19 1011.7
20260903201600 74 252 2.0 5.0 0.00 0.00 0.00 19 1011.8
20260903200055 73 192 3.0 9.0 0.00 0.00 0.00 18 1011.9
20260903194550 74 239 2.0 5.0 0.00 0.00 0.00 19 1012.1
20260903193046 74 227 2.0 5.0 0.00 0.00 0.00 18 1012.1
20260903191541 73 171 1.0 7.0 0.00 0.00 0.00 17 1012.2
20260903190037 73 159 2.0 7.0 0.00 0.00 0.00 17 1012.4
20260903184535 73 254 3.0 6.0 0.00 0.00 0.00 16 1012.6
20260903183028 73 185 1.0 5.0 0.00 0.00 0.00 15 1012.7
20260903181524 73 213 1.0 5.0 0.00 0.00 0.00 18 1012.8
20260903180019 72 107 1.0 6.0 0.00 0.00 0.00 17 1012.9
20260903174515 72 269 2.0 6.0 0.00 0.00 0.00 15 1013.0
20260903173011 71 200 2.0 4.0 0.00 0.00 0.00 13 1013.1
20260903171506 71 225 2.0 5.0 0.00 0.00 0.00 9 1013.0
20260903170002 70 221 2.0 4.0 0.00 0.00 0.00 10 1013.0
20260903164557 68 238 2.0 4.0 0.00 0.00 0.00 9 1012.9
20260903163053 67 213 2.0 5.0 0.00 0.00 0.00 10 1012.8
20260903161548 66 284 2.0 4.0 0.00 0.00 0.00 12 1012.7
20260903160048 65 249 2.0 5.0 0.00 0.00 0.00 11 1012.7
20260903154541 63 180 2.0 4.0 0.00 0.00 0.00 11 1012.7
20260903153036 62 176 1.0 3.0 0.00 0.00 0.00 13 1012.7
20260903151531 61 196 1.0 3.0 0.00 0.00 0.00 14 1012.6
20260903150031 60 196 1.0 4.0 0.00 0.00 0.00 13 1012.6
20260903144533 58 221 1.0 3.0 0.00 0.00 0.00 13 1012.5
20260903143017 56 221 1.0 3.0 0.00 0.00 0.00 19 1012.3
20260903141513 55 254 1.0 3.0 0.00 0.00 0.00 23 1011.9
20260903140010 53 254 1.0 3.0 0.00 0.00 0.00 32 1011.7
20260903134505 53 254 2.0 3.0 0.00 0.00 0.00 37 1011.4
20260903133108 53 253 2.0 3.0 0.00 0.00 0.00 40 1011.4
20260903131609 53 257 2.0 4.0 0.00 0.00 0.00 39 1011.3
20260903130055 54 248 3.0 5.0 0.00 0.00 0.00 38 1011.0
20260903124548 54 236 3.0 7.0 0.00 0.00 0.00 38 1010.8
20260903123045 55 219 4.0 8.0 0.00 0.00 0.00 36 1010.7
20260903121554 55 220 3.0 10.0 0.00 0.00 0.00 34 1010.7